This is the latest recevied weather packets stored in our database for station/object SP2WM. If no packets are shown the sender has not sent any weather packets the latest 10 day(s).
| Time | Temp. | Humidity | Pressure | Rain* | Wind** | Luminosity | Snow |
|---|---|---|---|---|---|---|---|
| 1777626639 | 17.78° C | 47% | 1024.5 hPa | 0 mm | - | - | - |
| 1777626019 | 17.22° C | 46% | 1024.6 hPa | 0 mm | - | - | - |
| 1777625423 | 16.67° C | 49% | 1024.5 hPa | 0 mm | - | - | - |
| 1777624824 | 17.22° C | 47% | 1024.6 hPa | 0 mm | - | - | - |
| 1777624225 | 17.22° C | 47% | 1024.6 hPa | 0 mm | - | - | - |
| 1777623628 | 16.67° C | 49% | 1024.6 hPa | 0 mm | - | - | - |
| 1777623033 | 17.22° C | 48% | 1024.5 hPa | 0 mm | - | - | - |
| 1777622432 | 16.11° C | 50% | 1024.5 hPa | 0 mm | - | - | - |
| 1777621831 | 16.11° C | 48% | 1024.5 hPa | 0 mm | - | - | - |
| 1777621231 | 16.11° C | 49% | 1024.5 hPa | 0 mm | - | - | - |
| 1777620631 | 16.11° C | 50% | 1024.5 hPa | 0 mm | - | - | - |
| 1777620038 | 15.56° C | 52% | 1024.5 hPa | 0 mm | - | - | - |
| 1777619436 | 15.56° C | 52% | 1024.5 hPa | 0 mm | - | - | - |
| 1777618836 | 16.11° C | 51% | 1024.5 hPa | 0 mm | - | - | - |
| 1777618236 | 15.56° C | 53% | 1024.5 hPa | 0 mm | - | - | - |
| 1777617638 | 15° C | 54% | 1024.3 hPa | 0 mm | - | - | - |
| 1777617019 | 14.44° C | 55% | 1024.3 hPa | 0 mm | - | - | - |
| 1777616419 | 13.33° C | 59% | 1024.2 hPa | 0 mm | - | - | - |
| 1777615838 | 11.67° C | 63% | 1024.2 hPa | 0 mm | - | - | - |
| 1777615222 | 10.56° C | 66% | 1024.2 hPa | 0 mm | - | - | - |
| 1777614625 | 10° C | 69% | 1024.2 hPa | 0 mm | - | - | - |
| 1777614024 | 8.89° C | 72% | 1024.1 hPa | 0 mm | - | - | - |
| 1777613423 | 8.33° C | 75% | 1024.1 hPa | 0 mm | - | - | - |
| 1777612830 | 7.22° C | 79% | 1024.2 hPa | 0 mm | - | - | - |
| 1777612229 | 6.67° C | 83% | 1024.2 hPa | 0 mm | - | - | - |
* Rain latest hour (hover to see other rain measurements)
** Current wind speed in m/s (hover to see current wind gust speed)